sat.trackr.live / text

‹ back to catalog

STARLINK-35207

NORAD 65500 · 2025-198J

PAYLOAD ACTIVE UNKNOWN

§ Identity

Operator
Country
US
Launch date
2025-09-05
Launch site
AFETR
Launch vehicle
Mass (kg)
RCS (m²)

Purposes: comms

External: N2YO · Heavens-Above · Gunter

§ Orbital elements

Epoch: 2026-05-24T21:10:13.105632Z

Period
94.10 min
Inclination
53.1603°
Eccentricity
0.0001029
Mean motion
15.30213018 rev/d
Perigee alt
474.5 km
Apogee alt
475.9 km
Semi-major
6,853.3 km
B*
4.5420e-4
RAAN
277.2190°
Arg perigee
90.9393°
Mean anomaly
269.1725°
Rev number
4,028

§ Raw data

STARLINK-352071 65500U 25198J   26144.88209613  .00013122  00000+0  45420-3 0  99912 65500  53.1603 277.2190 0001029  90.9393 269.1725 15.30213018 40289

JSON: /api/v1/satellites/65500 · /tle

For live sub-satellite position, see the globe view (requires WebGL).

§ Visibility from observer

Set your observer location to see the next 7 days of passes ≥ 10°. The values pass through the URL so the page stays shareable.

No JS? Fill the form by hand. The geolocation button needs JavaScript.